Location: Lake Mineral Wells State Park
(32.8157°N, 98.0290°W)
Time: 18:59:19
(UTC-06:00)

Envisat - Pass Details

Date: 28 October 2019
Orbit: 764 x 766 km, 98.1° (Epoch: 21 November)

Event Time Altitude Azimuth Distance (km) Brightness Sun altitude
Rises 20:49:50 0° 206° (SSW) 3,217 6.5 -26.8°
Reaches altitude 10° 20:52:54 10° 226° (SW) 2,296 6.0 -27.4°
Maximum altitude 20:56:10 17° 266° (W) 1,852 5.8 -28.1°
Drops below altitude 10° 20:59:26 10° 307° (NW) 2,304 6.1 -28.8°
Sets 21:02:33 0° 327° (NNW) 3,235 6.7 -29.5°
